Temp
56 55 55 55 55 55 53 48 40 55 57 39 41 36 42 44 44 47 44 45 47 44 46 43 41 39 44 52 51 43 44 38 32 34 42 46 45 39 40 32 29 31 29 29
55 55 55 55 55 55 47 44 44 56 54 33 34 42 44 47 46 46 47 47 49 50 46 40 45 44 51 52 48 45 48 37 29 31 36 42 39 41 41 42 36 31 28 29
55 55 54 54 54 54 50 44 33 42 47 42 37 36 40 40 50 48 51 50 52 49 46 48 43 43 48 50 50 49 49 43 36 31 36 39 35 40 41 38 31 34 33 37
55 54 54 54 54 54 51 44 36 38 33 38 37 40 40 38 40 50 51 48 48 46 41 44 42 45 47 50 52 49 47 36 39 40 43 43 39 39 41 31 38 32 38 40
55 54 54 54 53 54 47 37 35 39 36 41 39 37 36 35 41 44 45 43 48 46 40 42 41 45 45 43 48 45 47 35 39 35 41 40 36 41 41 41 41 40 41 40
54 54 53 53 53 53 45 45 45 38 39 40 37 35 35 36 40 46 50 47 47 43 43 47 49 49 49 46 44 42 42 38 35 25 38 36 27 38 40 41 42 42 35 42
54 54 53 53 53 52 48 46 42 36 33 38 35 36 36 37 39 40 49 49 47 48 53 52 51 49 49 48 46 48 41 40 38 27 32 20 35 44 44 43 45 45 47 48
54 53 53 53 53 53 48 48 42 38 30 36 38 38 36 38 42 45 47 49 50 52 48 43 39 38 41 43 46 45 46 41 32 25 27 33 37 41 40 40 42 48 46 48
53 53 53 53 53 53 49 47 47 41 34 37 42 38 37 35 36 40 47 52 53 50 44 40 32 29 35 33 40 44 46 43 33 28 26 25 37 44 48 45 36 48 49 48
53 53 52 53 53 53 49 46 49 41 35 41 41 35 35 38 36 35 43 43 45 48 40 35 32 34 39 32 32 37 36 35 29 31 26 33 43 46 47 33 37 49 51 50
53 52 52 53 53 52 48 45 49 42 37 39 43 45 39 40 37 34 38 40 43 41 36 34 35 34 35 33 35 34 34 30 29 32 27 23 45 43 37 46 51 52 49 49
52 52 52 52 52 52 51 42 50 48 38 38 46 46 47 45 45 39 40 39 41 42 39 37 37 36 36 35 32 37 32 36 33 35 34 45 46 47 49 49 48 47 47 48
52 52 53 52 52 52 50 43 45 43 38 39 41 41 50 52 49 50 38 44 44 45 44 39 39 35 37 33 34 35 39 43 37 39 43 45 48 49 50 50 48 49 49 48
52 52 53 52 52 52 51 43 45 43 38 31 37 52 47 54 52 48 48 45 46 45 45 40 40 38 42 37 38 36 40 40 40 40 44 45 46 47 47 48 49 49 49 47
52 52 51 52 51 51 48 46 46 47 38 31 34 42 47 50 48 47 47 44 41 41 40 39 38 42 40 40 38 35 41 40 36 36 43 44 43 45 47 47 46 47 47 46
51 51 51 51 51 50 43 37 45 48 45 35 29 43 43 47 48 45 45 44 41 41 41 41 42 47 42 34 36 45 46 48 47 42 45 45 46 47 46 44 45 46 44 45
51 51 51 51 51 46 39 36 42 47 44 34 30 31 43 46 47 45 44 44 42 42 42 40 41 44 43 38 32 44 46 47 46 46 45 43 42 40 43 44 45 47 45 45
50 51 50 50 50 48 41 45 48 46 39 37 28 28 36 45 40 39 45 41 42 43 41 42 40 42 42 35 40 42 43 44 44 43 42 41 43 42 45 43 45 43 42 43
50 50 49 46 44 40 41 47 47 45 38 31 32 27 28 39 41 42 42 43 36 42 38 40 40 39 34 39 41 43 41 39 38 41 42 42 42 43 40 40 40 39 40 41
50 45 42 37 39 46 46 41 35 35 36 35 29 36 31 36 39 38 38 40 36 32 37 40 34 35 41 38 37 36 36 37 40 38 38 38 37 38 40 40 40 40 40 41
43 37 34 40 47 39 37 32 31 33 30 33 34 35 32 40 34 35 40 34 34 31 34 34 33 33 37 38 36 38 38 38 39 39 39 39 39 39 39 40 40 40 42 42
41 40 42 40 36 33 30 29 32 30 29 35 33 35 36 37 41 36 36 33 33 29 37 33 29 33 35 36 36 37 37 39 39 40 38 39 39 39 38 38 39 39 39 40
43 37 33 33 32 26 27 26 30 30 33 33 33 32 37 38 39 35 34 32 31 37 31 31 33 32 35 35 35 35 37 38 37 36 37 37 36 37 36 35 36 36 37 39
33 27 19 29 28 30 31 30 30 34 32 33 32 31 33 37 34 34 31 34 33 28 27 26 30 34 35 35 35 35 33 33 33 33 34 33 33 34 34 34 34 33 33 34
27 28 17 26 34 33 33 33 33 35 34 32 31 32 33 32 32 32 32 30 28 30 29 32 33 33 34 33 33 33 32 31 30 32 32 31 30 32 32 33 33 32 32 32
31 30 23 29 25 26 26 31 32 34 33 34 32 31 32 32 32 31 31 28 26 31 32 32 32 32 33 33 35 35 35 34 32 32 31 32 32 32 30 31 30 30 30 30
28 26 33 31 30 29 32 34 34 37 32 30 31 30 29 32 30 29 32 31 32 32 30 32 32 32 32 31 32 33 32 31 30 30 29 30 31 33 31 28 28 29 30 28
MSLP
1019.46 1018.86 1018.10 1017.01 1015.98 1014.80 1013.22 1012.36 1011.45 1011.00 1010.49 1011.36 1011.34 1011.16 1010.55 1010.24 1009.17 1008.41 1007.58 1006.99 1005.63 1005.04 1004.48 1004.50 1004.77 1005.26 1004.98 1004.73 1004.48 1005.01 1005.92 1007.28 1008.65 1009.40 1009.29 1009.54 1009.46 1010.10 1010.37 1010.96 1010.85 1010.22 1009.52 1008.19
1019.50 1019.01 1018.32 1017.42 1016.37 1015.50 1015.19 1013.72 1012.90 1011.34 1010.73 1012.24 1012.17 1011.63 1010.31 1009.52 1008.75 1007.72 1006.76 1005.78 1005.50 1004.71 1004.29 1004.51 1004.47 1004.72 1004.90 1004.54 1004.50 1004.92 1005.24 1006.61 1007.83 1009.23 1009.64 1009.28 1009.15 1009.55 1009.97 1010.27 1010.55 1009.82 1009.35 1008.31
1019.86 1019.11 1018.42 1017.50 1016.61 1015.46 1014.90 1014.52 1014.20 1013.40 1012.57 1013.59 1013.17 1012.32 1010.86 1009.72 1008.56 1007.71 1006.79 1005.84 1004.88 1004.64 1004.51 1004.36 1004.81 1004.91 1004.92 1004.72 1004.77 1004.62 1004.74 1005.51 1006.44 1007.21 1007.14 1007.77 1008.29 1008.81 1009.57 1010.07 1010.00 1008.99 1008.32 1008.05
1020.00 1019.58 1018.83 1018.05 1016.79 1015.70 1014.63 1014.90 1015.57 1016.10 1014.85 1014.06 1013.83 1012.97 1011.94 1010.63 1009.12 1007.85 1006.92 1006.21 1005.60 1005.19 1005.04 1005.05 1005.27 1005.23 1005.02 1004.83 1004.68 1004.68 1004.63 1005.96 1006.57 1006.98 1007.27 1007.43 1007.89 1008.35 1008.87 1009.36 1009.03 1008.66 1008.01 1007.55
1020.18 1019.76 1019.31 1018.49 1017.44 1016.05 1015.96 1016.53 1016.98 1016.36 1015.49 1014.69 1014.20 1013.68 1012.98 1011.93 1010.33 1008.79 1007.55 1007.05 1006.36 1006.33 1006.39 1006.38 1006.01 1005.60 1005.31 1005.32 1004.86 1004.96 1005.12 1006.31 1006.81 1007.48 1007.77 1007.89 1008.11 1008.27 1008.41 1008.66 1008.63 1008.23 1007.82 1007.64
1020.35 1020.03 1019.50 1018.80 1018.00 1016.83 1016.54 1017.09 1017.15 1016.84 1015.75 1014.81 1014.65 1014.59 1014.07 1012.78 1011.62 1009.57 1008.23 1007.80 1007.12 1007.17 1007.41 1007.02 1006.48 1005.96 1005.85 1005.82 1005.67 1005.57 1005.64 1006.37 1006.92 1007.83 1007.98 1008.13 1008.39 1008.00 1008.02 1008.12 1007.98 1007.87 1007.78 1007.57
1020.26 1019.90 1019.58 1019.28 1018.68 1018.28 1018.04 1017.88 1017.35 1016.93 1016.00 1015.26 1015.36 1014.93 1014.48 1013.26 1012.07 1010.57 1008.82 1008.07 1007.43 1007.87 1007.47 1007.01 1006.41 1006.11 1006.04 1005.97 1006.00 1005.94 1006.16 1006.53 1007.12 1007.72 1008.02 1008.26 1008.22 1007.83 1007.63 1007.67 1007.68 1007.55 1007.57 1007.57
1020.06 1020.02 1019.63 1019.52 1018.98 1018.58 1018.72 1018.50 1018.15 1017.64 1016.84 1015.83 1015.17 1014.96 1014.59 1013.43 1012.05 1010.47 1009.31 1008.78 1008.56 1008.08 1007.59 1007.14 1006.75 1006.57 1006.47 1006.56 1006.67 1006.53 1006.58 1006.95 1007.60 1008.32 1008.23 1008.44 1008.15 1007.98 1007.62 1007.52 1007.54 1007.40 1007.54 1007.73
1020.22 1020.16 1019.81 1019.44 1019.15 1018.90 1018.71 1018.36 1018.50 1018.26 1017.61 1015.64 1015.12 1014.85 1014.74 1014.15 1013.11 1011.52 1009.83 1008.92 1008.49 1008.32 1008.09 1007.73 1007.58 1007.27 1006.88 1007.00 1007.11 1007.18 1007.21 1007.26 1008.01 1008.52 1008.56 1008.38 1008.15 1007.86 1007.52 1007.55 1007.60 1007.19 1007.46 1007.88
1020.28 1020.09 1019.80 1019.66 1019.56 1019.18 1019.11 1018.80 1018.55 1018.15 1017.86 1015.90 1015.63 1015.43 1015.09 1014.98 1014.38 1013.20 1011.40 1010.59 1009.38 1008.80 1008.75 1008.46 1008.16 1007.90 1007.76 1007.59 1007.37 1007.45 1007.58 1007.87 1008.28 1008.44 1008.36 1008.10 1007.92 1007.77 1007.80 1007.85 1008.23 1007.51 1007.71 1008.10
1020.09 1020.00 1019.86 1019.70 1019.30 1018.65 1018.45 1018.34 1018.26 1018.37 1017.87 1016.47 1015.65 1015.32 1015.17 1014.90 1015.04 1013.97 1012.95 1011.68 1010.67 1009.89 1009.61 1009.34 1008.91 1008.59 1008.45 1008.21 1007.93 1007.93 1008.06 1008.24 1008.50 1008.49 1008.51 1008.51 1007.91 1008.05 1008.09 1008.04 1007.72 1007.79 1007.97 1008.20
1019.92 1019.93 1019.84 1019.49 1019.11 1019.14 1019.07 1018.36 1018.46 1018.31 1018.21 1016.74 1015.62 1015.00 1014.83 1014.73 1014.53 1014.72 1013.77 1012.84 1011.79 1011.16 1010.84 1010.40 1009.71 1009.15 1008.88 1008.65 1008.59 1008.54 1008.51 1008.52 1008.60 1008.56 1008.64 1008.33 1008.12 1008.17 1008.16 1008.21 1008.32 1008.31 1008.34 1008.53
1019.60 1019.44 1019.57 1019.29 1019.25 1018.98 1018.92 1018.62 1018.24 1018.03 1017.36 1015.82 1014.46 1013.61 1013.18 1013.11 1013.56 1014.08 1014.13 1012.62 1012.36 1011.74 1011.73 1011.24 1010.40 1009.96 1009.41 1009.14 1008.94 1008.63 1008.39 1008.43 1008.60 1008.43 1008.33 1008.23 1008.23 1008.45 1008.57 1008.58 1008.60 1008.63 1008.69 1008.86
1019.73 1019.60 1019.38 1019.31 1018.93 1018.88 1018.33 1018.11 1017.87 1017.94 1017.56 1016.40 1014.28 1013.03 1012.91 1012.77 1012.86 1013.24 1013.41 1013.20 1012.99 1013.00 1012.08 1011.37 1010.62 1010.09 1009.63 1009.43 1009.36 1009.13 1008.81 1008.65 1008.41 1008.35 1008.12 1008.34 1008.61 1008.89 1009.14 1009.03 1009.13 1009.16 1009.19 1009.32
1019.51 1019.44 1019.12 1019.03 1018.75 1018.28 1018.09 1017.94 1017.61 1017.36 1017.93 1016.38 1014.84 1013.85 1011.88 1011.73 1011.74 1012.52 1012.97 1013.36 1013.66 1013.33 1012.41 1011.48 1010.75 1009.98 1009.86 1009.43 1009.47 1008.92 1008.53 1008.37 1008.62 1008.68 1008.57 1008.55 1009.09 1009.35 1009.56 1009.68 1009.77 1009.73 1009.72 1009.68
1019.13 1018.93 1018.69 1018.58 1018.54 1018.12 1018.08 1017.72 1017.46 1017.32 1017.34 1016.75 1015.59 1012.87 1011.64 1011.30 1011.14 1011.94 1012.44 1012.86 1013.38 1013.14 1012.36 1011.52 1010.79 1009.92 1009.98 1009.72 1009.20 1008.36 1008.09 1008.20 1008.45 1008.95 1009.00 1009.26 1009.47 1009.68 1010.05 1010.23 1010.22 1010.15 1010.13 1010.07
1018.88 1018.56 1018.36 1017.71 1017.53 1017.92 1018.01 1017.57 1017.95 1017.87 1018.01 1017.42 1015.69 1013.74 1011.74 1011.26 1011.16 1011.67 1011.99 1012.50 1012.66 1012.58 1011.69 1011.08 1010.51 1010.02 1010.03 1009.80 1009.33 1008.41 1008.28 1008.48 1008.92 1009.30 1009.55 1009.82 1010.10 1010.47 1010.63 1010.67 1010.62 1010.46 1010.33 1010.26
1018.56 1018.10 1017.46 1017.20 1016.96 1016.82 1016.90 1016.50 1016.92 1017.72 1017.90 1017.70 1016.37 1014.32 1012.46 1011.46 1010.97 1011.12 1011.43 1011.68 1012.09 1011.68 1011.29 1011.08 1010.52 1010.20 1010.19 1010.03 1009.18 1009.12 1009.09 1009.25 1009.60 1010.01 1010.36 1010.65 1010.70 1010.74 1010.82 1010.89 1010.90 1010.86 1010.75 1010.61
1018.17 1017.25 1017.17 1016.87 1016.85 1017.47 1017.74 1017.12 1016.99 1017.39 1018.17 1017.20 1016.15 1014.85 1013.26 1012.39 1010.70 1010.61 1010.93 1011.12 1011.38 1011.36 1010.91 1010.69 1010.66 1010.11 1010.04 1009.51 1009.62 1009.66 1009.70 1010.10 1010.45 1010.65 1010.90 1011.03 1011.12 1011.17 1011.29 1011.32 1011.29 1011.25 1011.18 1011.06
1017.70 1017.12 1016.93 1017.08 1017.50 1017.17 1017.93 1017.46 1017.37 1017.21 1017.41 1017.26 1015.82 1014.36 1013.57 1013.28 1011.22 1010.66 1010.92 1010.92 1011.03 1011.03 1010.68 1010.57 1010.54 1009.92 1009.64 1010.01 1010.53 1010.83 1010.94 1011.06 1011.28 1011.20 1011.30 1011.42 1011.57 1011.74 1011.75 1011.69 1011.62 1011.53 1011.41 1011.26
1017.97 1017.60 1017.55 1017.85 1017.60 1017.01 1017.17 1017.56 1017.32 1016.69 1016.58 1016.11 1014.84 1014.06 1013.33 1012.59 1011.61 1010.72 1010.71 1010.71 1010.81 1010.78 1010.63 1010.80 1010.54 1010.15 1010.15 1010.77 1011.29 1011.62 1011.78 1011.86 1011.94 1012.04 1012.08 1012.11 1012.14 1012.16 1012.10 1011.98 1011.87 1011.75 1011.60 1011.43
1018.69 1018.79 1018.12 1017.96 1017.49 1017.51 1017.31 1016.93 1016.58 1016.26 1015.43 1014.58 1014.15 1013.44 1012.90 1012.20 1011.15 1010.83 1010.69 1010.73 1010.94 1010.74 1010.91 1011.13 1010.58 1010.34 1010.85 1011.39 1011.84 1012.15 1012.32 1012.35 1012.34 1012.39 1012.50 1012.53 1012.59 1012.60 1012.53 1012.39 1012.24 1012.20 1012.03 1011.72
1018.46 1018.47 1018.28 1018.04 1017.46 1017.67 1016.98 1016.39 1016.14 1015.90 1015.31 1014.84 1014.43 1013.74 1012.43 1011.54 1011.11 1010.93 1010.70 1010.70 1010.86 1010.92 1011.12 1010.84 1010.55 1010.83 1011.31 1011.87 1012.31 1012.74 1012.88 1012.90 1013.01 1013.11 1013.12 1013.12 1013.16 1013.08 1012.99 1012.83 1012.75 1012.58 1012.28 1011.95
1018.52 1018.88 1018.05 1018.46 1017.57 1017.03 1016.95 1016.88 1016.77 1016.22 1015.54 1014.94 1014.32 1013.45 1012.40 1011.29 1011.01 1010.78 1010.72 1010.75 1010.87 1011.00 1010.92 1010.63 1010.88 1011.31 1011.79 1012.30 1012.75 1013.06 1013.50 1013.65 1013.72 1013.80 1013.82 1013.76 1013.67 1013.55 1013.48 1013.43 1013.32 1013.10 1012.80 1012.48
1018.73 1019.20 1018.42 1017.84 1017.38 1017.01 1017.09 1016.95 1016.55 1016.15 1015.54 1014.97 1013.90 1012.98 1012.24 1011.28 1010.94 1010.66 1010.65 1010.87 1010.70 1010.53 1010.60 1010.97 1011.31 1011.89 1012.38 1012.96 1013.32 1013.59 1013.83 1013.99 1014.17 1014.27 1014.26 1014.23 1014.16 1014.08 1013.99 1013.90 1013.78 1013.61 1013.34 1013.03
1019.26 1018.94 1018.37 1017.59 1017.48 1017.07 1016.95 1016.70 1016.41 1016.05 1015.66 1014.39 1013.71 1012.68 1011.68 1011.12 1010.79 1010.59 1010.46 1010.66 1010.64 1010.91 1011.14 1011.56 1012.05 1012.51 1012.99 1013.41 1013.70 1013.90 1014.08 1014.23 1014.36 1014.46 1014.56 1014.55 1014.46 1014.33 1014.21 1014.12 1014.11 1013.91 1013.74 1013.54
1019.14 1018.49 1017.85 1017.89 1017.79 1017.37 1017.09 1016.76 1016.46 1016.42 1016.03 1015.20 1014.28 1013.09 1012.23 1011.60 1011.02 1010.87 1010.73 1011.00 1011.41 1011.73 1011.86 1012.17 1012.58 1012.99 1013.47 1013.96 1014.28 1014.36 1014.59 1014.74 1014.92 1015.05 1015.13 1015.08 1014.85 1014.57 1014.54 1014.54 1014.39 1014.13 1013.82 1013.61
Wind_Speed
23 24 26 29 30 31 10 5 2 1 2 3 2 4 5 2 8 4 7 5 8 9 9 11 6 7 6 6 6 4 6 5 5 3 4 12 5 7 5 2 4 2 2 5
21 22 24 28 30 29 7 6 4 4 6 4 4 9 8 2 6 8 7 7 6 7 5 4 6 6 7 7 6 4 4 2 5 7 3 2 6 10 5 0 3 4 2 2
20 21 23 26 29 29 7 4 5 4 3 1 3 5 7 9 4 4 6 7 5 8 7 8 6 3 5 5 4 9 4 3 4 4 6 9 6 14 11 4 2 2 3 4
19 20 23 24 27 29 5 5 3 2 5 4 10 7 7 9 12 9 7 4 9 9 5 7 4 3 4 2 3 1 5 6 7 8 8 7 7 10 11 5 5 3 3 7
17 19 21 22 24 28 5 4 4 4 5 10 9 9 8 8 8 7 8 9 10 11 6 6 7 7 7 5 4 3 3 3 5 5 5 6 5 5 7 7 4 2 5 6
15 17 18 19 19 16 4 4 3 3 6 6 5 4 6 8 15 9 6 8 6 6 5 8 7 2 3 3 6 3 4 4 1 1 3 5 2 6 7 5 4 5 4 3
12 13 15 16 15 12 4 3 1 3 4 5 5 7 10 9 13 8 9 9 5 4 7 8 7 3 4 6 4 3 3 3 3 3 3 2 3 5 2 5 6 5 5 5
8 11 12 14 14 13 3 3 3 3 5 7 5 12 7 12 12 8 3 5 4 6 6 3 2 2 1 5 6 7 6 2 2 1 2 4 2 2 3 5 4 7 4 5
7 9 11 12 13 12 4 1 2 3 5 2 8 11 6 4 5 7 4 4 5 5 3 2 1 0 2 2 0 1 2 3 3 2 0 2 4 4 3 2 2 5 6 6
6 8 10 12 13 13 4 2 2 2 4 6 8 3 5 3 4 5 4 7 5 2 3 2 2 1 2 1 1 0 1 2 1 1 2 3 5 4 2 1 3 5 6 5
6 8 10 11 11 11 2 4 2 0 3 11 6 6 5 5 2 4 7 4 2 3 2 2 2 3 3 3 2 2 1 3 1 4 0 1 2 2 1 3 4 3 0 3
6 7 10 10 10 9 7 2 2 1 3 7 14 18 17 18 15 6 4 4 3 3 3 3 2 3 1 3 1 1 1 2 0 2 1 2 4 5 4 3 2 3 2 4
6 8 10 11 11 10 8 4 4 2 4 9 4 6 7 11 14 11 4 2 4 4 4 3 2 3 2 2 3 4 3 2 1 3 4 4 5 7 6 4 4 4 5 4
9 10 12 11 12 12 10 3 3 1 3 5 4 5 6 5 1 11 13 7 3 4 4 3 2 2 1 2 1 1 1 1 2 3 3 6 6 7 5 4 6 5 4 3
10 12 12 14 14 13 7 5 5 5 3 4 8 16 13 7 13 12 10 10 6 3 3 2 2 2 1 1 2 3 4 3 2 1 4 3 6 6 6 6 6 5 5 4
11 14 13 13 16 13 2 4 4 3 2 4 4 5 8 7 5 12 10 7 3 3 2 3 3 2 0 2 2 4 3 2 4 2 4 5 4 7 8 5 5 4 5 4
14 15 16 14 14 4 3 2 1 3 1 3 5 5 2 4 4 5 3 6 3 3 3 3 3 2 2 2 3 3 2 5 7 6 4 3 5 2 4 4 5 5 4 3
15 17 17 16 11 5 2 1 9 3 1 3 3 6 4 3 3 3 4 4 3 3 1 1 3 2 1 4 7 4 5 6 6 6 6 3 3 1 2 3 4 5 6 5
19 18 14 1 2 2 3 7 2 2 1 3 3 3 4 9 2 3 3 3 2 1 4 3 2 3 5 5 4 6 4 4 4 3 1 2 2 4 5 5 5 4 5 5
15 3 1 2 2 6 7 1 1 2 2 3 5 3 4 1 3 2 3 2 3 3 3 1 2 4 2 5 6 5 6 6 3 2 1 3 3 4 5 4 4 5 5 5
4 3 2 2 4 1 0 2 2 3 3 4 4 5 5 3 4 1 2 2 1 2 2 2 3 4 3 6 5 4 4 3 3 2 2 3 4 5 6 6 5 6 7 7
4 4 3 2 2 1 2 3 3 4 3 2 3 3 4 4 3 2 2 2 2 2 2 1 3 1 5 5 5 5 4 4 4 4 4 4 4 5 5 5 5 6 7 7
1 2 2 1 1 3 4 4 2 4 4 3 4 4 5 3 2 1 1 3 2 3 2 4 3 4 5 6 5 5 5 5 5 5 5 4 5 5 5 5 6 7 7 6
2 4 5 1 3 2 2 2 3 3 3 7 7 4 3 0 3 2 3 2 2 2 3 5 2 4 5 5 4 4 3 3 4 4 5 5 5 5 4 5 5 6 6 7
1 1 3 4 2 2 3 4 4 4 4 6 5 4 3 2 2 2 2 3 3 4 2 0 2 5 5 5 4 3 3 2 2 2 3 4 4 5 4 5 5 5 6 6
2 4 2 4 2 2 2 4 7 2 6 5 2 4 2 2 1 2 3 1 2 1 1 1 3 4 4 4 4 4 3 4 3 3 3 4 4 5 4 2 3 4 4 5
3 5 5 5 6 5 4 4 6 5 5 3 4 5 4 3 2 1 1 2 1 2 0 1 2 4 5 5 3 3 2 3 3 3 4 4 5 4 4 5 6 6 4 3
Wind_Direction
353 351 351 349 348 347 345 291 20 350 247 29 343 331 331 284 296 228 268 246 339 352 10 27 68 63 42 349 316 100 138 86 107 78 224 176 158 150 127 196 183 204 193 275
355 354 351 351 350 354 332 341 332 335 13 38 351 335 324 284 329 315 346 342 337 310 6 74 55 52 20 19 31 25 135 155 118 128 95 153 191 159 165 89 23 198 232 224
354 354 356 354 351 351 343 350 350 345 12 167 324 332 317 338 177 277 338 321 331 348 54 48 78 67 16 4 26 315 294 68 70 97 99 138 172 164 167 201 192 190 228 130
355 358 360 1 354 346 337 16 44 52 344 327 326 344 325 342 4 342 358 20 7 350 11 79 71 105 185 99 327 318 41 76 73 66 63 85 128 164 177 153 237 109 193 156
355 2 2 3 3 343 87 36 353 346 286 295 333 1 10 311 343 326 8 358 10 32 47 8 33 347 13 40 355 36 323 125 139 73 82 98 124 171 180 166 242 324 21 73
355 359 4 3 10 358 22 24 327 264 298 344 346 19 333 305 313 300 29 325 311 31 17 334 320 347 61 42 1 30 10 149 220 122 123 126 94 194 174 180 192 173 202 174
350 355 357 1 9 15 340 3 289 310 304 339 346 320 320 306 307 292 347 355 358 11 308 284 254 100 81 51 46 345 6 15 351 134 137 46 149 48 349 175 193 200 103 111
341 348 352 358 2 3 349 8 347 343 305 332 331 332 316 313 318 323 10 20 338 318 303 324 336 272 225 93 35 15 0 8 99 112 170 114 146 194 180 151 184 199 186 149
341 339 348 349 351 5 337 74 299 312 310 203 338 336 347 335 327 322 10 48 324 332 284 302 274 31 334 97 181 32 317 345 89 64 185 161 106 128 15 52 125 124 139 91
325 330 337 342 351 355 348 315 98 279 298 280 6 324 319 302 312 293 309 344 329 290 324 306 3 64 333 308 275 48 80 343 186 199 23 71 131 126 112 216 128 119 108 114
307 320 329 333 345 344 335 286 188 230 280 290 265 288 316 292 268 299 334 308 321 336 321 1 352 356 35 309 57 342 192 156 230 32 324 248 132 100 17 82 80 112 244 127
296 318 317 326 330 339 348 289 353 240 224 267 297 281 267 253 257 286 279 298 291 7 329 347 315 308 33 8 120 348 360 83 33 96 161 108 65 84 67 60 60 2 8 105
295 305 309 319 327 336 329 290 290 267 267 283 274 272 279 221 222 223 256 216 351 18 351 306 296 298 27 338 20 1 166 93 278 22 171 169 154 80 68 56 74 54 49 48
306 307 316 324 322 313 314 286 281 267 290 283 285 307 309 324 243 203 232 272 343 318 287 279 279 281 125 346 239 293 145 106 269 270 176 126 123 91 40 39 61 35 42 68
310 309 310 312 310 308 307 279 261 222 236 293 300 304 274 274 215 208 213 234 245 279 301 270 267 311 352 182 43 259 173 216 181 294 28 59 94 98 44 43 44 38 16 10
306 308 308 309 312 319 340 324 36 8 177 284 298 306 290 292 191 191 197 203 182 233 227 261 226 237 322 292 252 252 106 65 29 80 62 73 48 99 55 21 0 23 356 360
308 309 308 309 308 301 215 210 108 7 61 286 287 286 291 307 167 172 171 153 189 215 233 226 234 209 178 264 233 216 138 135 98 70 4 149 40 83 9 12 349 342 311 268
308 306 309 305 300 280 243 244 262 146 226 254 283 276 293 227 156 182 172 161 176 215 240 290 271 122 124 253 256 337 63 77 93 89 53 37 341 311 62 33 1 347 337 345
312 310 306 271 55 330 5 336 206 217 262 278 240 290 312 324 248 168 159 122 174 229 218 208 191 192 220 227 220 254 127 103 106 59 324 296 345 26 14 356 336 330 323 331
319 316 288 84 28 325 332 283 298 180 213 233 246 274 263 36 303 168 108 169 196 179 216 108 225 251 203 82 71 65 57 66 24 22 57 20 5 4 341 321 317 313 314 310
326 343 27 310 294 54 119 282 247 182 238 216 244 241 255 223 250 130 195 160 149 170 189 211 249 257 116 109 99 82 73 67 61 32 344 302 298 311 317 321 335 325 317 308
306 297 294 287 13 220 262 233 212 230 265 215 251 287 211 255 250 188 220 133 144 173 101 214 250 151 121 126 107 93 65 41 37 26 2 356 332 331 322 321 328 327 318 307
238 205 244 342 95 291 252 346 58 311 329 339 324 314 288 220 253 35 146 157 172 99 187 234 237 115 114 120 119 82 49 39 42 29 22 10 354 354 350 340 343 331 322 333
12 348 354 286 258 225 356 332 283 276 261 288 301 253 254 276 197 184 175 121 111 209 228 229 145 155 125 88 86 120 91 67 50 35 19 18 11 4 8 1 345 336 338 337
85 269 225 224 261 222 269 290 289 286 272 295 282 250 251 214 221 202 134 163 228 226 262 335 142 131 123 126 119 118 119 78 51 27 11 1 358 3 359 3 356 350 344 345
219 227 287 255 277 276 336 308 307 298 306 282 230 270 251 198 305 197 203 219 236 34 302 183 130 136 123 123 119 80 58 40 29 26 9 349 359 348 325 359 11 340 344 340
221 242 239 261 276 260 290 303 304 324 303 325 300 305 3 287 238 240 294 357 18 347 282 88 123 134 124 109 101 96 73 55 38 11 18 351 338 335 22 5 344 329 326 290